Location: *
(37.5724°S, 58.0067°E)
Time: 10:08:42
(UTC+00:00)

ISS - Pass Details

Date: 26 September 2020
Orbit: 417 x 420 km, 51.6° (Epoch: 30 October)

Event Time Altitude Azimuth Distance (km) Brightness Sun altitude
Exits shadow 23:35:25 28° 112° (ESE) 839 -1.6 -26.5°
Drops below altitude 10° 23:37:13 10° 123° (ESE) 1,523 0.1 -26.2°
Sets 23:39:21 0° 126° (SE) 2,394 1.4 -25.8°
